ジャック彗星

C/2017 K6 ( Jacques )

English version
Home page
Updated on August 25, 2017

---------------------------------------------------------------------

・ プロフィール

発見日 2017年5月29日
発見光度 17.5等
発見者 Cristovao Jacques (SONEAR Observatory at Oliveira)

・ 写真集

・ 軌道要素

Epoch 2018 Jan. 2.0 TT = JDT 2458120.5
T 2018 Jan. 3.14159 TT                                  MPCW
q   2.0027042            (2000.0)            P               Q
z  +0.0009642      Peri.  303.84183     +0.49569069     -0.22851097
 +/-0.0000198      Node    85.05180     +0.75134930     +0.59673452
e   0.9980690      Incl.   57.24933     -0.43562022     +0.76921431
From 102 observations 2017 May 29-Aug. 13, mean residual 0".5.

・ 星図

・ 光度変化

        m1 = 10.0 + 5 logΔ + 10.0 log r

---------------------------------------------------------------------

軌道要素はM.P.E.C. 2017-Q100に掲載されたものです。
星図はステラナビゲータ Ver.10 (アストロアーツ) で作成したものです。
光度グラフはComet for Windowsで作成したものです。

---------------------------------------------------------------------

Copyright(C) Seiichi Yoshida (comet@aerith.net). All rights reserved.